Orbital elements of FENGYUN 1C DEB
| Launched | 9 May 1999 |
| Flight ended | – |
| Launch site | Taiyuan Space Center, PRC |
| Owner | People's Republic of China |
| NORAD ID | 31161 |
| Date fetched |
Epoch osculation |
Inc. [°] |
Ecc. | RA asc node [hr] |
Arg Peri. [°] |
Mean anom [°] |
Mean motion [rev/day] |
Abs. mag |
| Date fetched |
Epoch osculation |
Inc. [°] |
Ecc. | RA asc node [hr] |
Arg Peri. [°] |
Mean anom [°] |
Mean motion [rev/day] |
Abs. mag |
| 2026 May 07 17:58 | 2026 May 05 07:02:38 | 98.7351 | 0.00672 | 9.8466 | 303.9343 | 55.5454 | 14.09425 | – |
| 2026 May 06 17:57 | 2026 May 05 07:02:38 | 98.7351 | 0.00672 | 9.8466 | 303.9343 | 55.5454 | 14.09425 | – |
| 2026 May 05 17:57 | 2026 May 05 07:02:38 | 98.7351 | 0.00672 | 9.8466 | 303.9343 | 55.5454 | 14.09425 | – |
| 2026 May 04 17:57 | 2026 Apr 29 07:55:39 | 98.7353 | 0.00674 | 9.4607 | 321.1087 | 55.5454 | 14.09425 | – |
| 2026 May 03 17:57 | 2026 Apr 29 07:55:39 | 98.7353 | 0.00674 | 9.4607 | 321.1087 | 55.5454 | 14.09425 | – |
| 2026 May 02 17:57 | 2026 Apr 29 07:55:39 | 98.7353 | 0.00674 | 9.4607 | 321.1087 | 55.5454 | 14.09425 | – |
| 2026 May 01 17:56 | 2026 Apr 29 07:55:39 | 98.7353 | 0.00674 | 9.4607 | 321.1087 | 55.5454 | 14.09425 | – |
| 2026 Apr 30 17:56 | 2026 Apr 29 07:55:39 | 98.7353 | 0.00674 | 9.4607 | 321.1087 | 55.5454 | 14.09425 | – |
| 2026 Apr 29 17:57 | 2026 Apr 24 12:04:16 | 98.7365 | 0.00677 | 9.1485 | 334.9330 | 55.5454 | 14.09425 | – |
| 2026 Apr 28 17:56 | 2026 Apr 24 12:04:16 | 98.7365 | 0.00677 | 9.1485 | 334.9330 | 55.5454 | 14.09425 | – |
| 2026 Apr 27 17:58 | 2026 Apr 24 12:04:16 | 98.7365 | 0.00677 | 9.1485 | 334.9330 | 55.5454 | 14.09425 | – |
| 2026 Apr 26 17:58 | 2026 Apr 24 12:04:16 | 98.7365 | 0.00677 | 9.1485 | 334.9330 | 55.5454 | 14.09425 | – |
| 2026 Apr 25 17:58 | 2026 Apr 24 12:04:16 | 98.7365 | 0.00677 | 9.1485 | 334.9330 | 55.5454 | 14.09425 | – |
| 2026 Apr 24 17:59 | 2026 Apr 24 12:04:16 | 98.7365 | 0.00677 | 9.1485 | 334.9330 | 55.5454 | 14.09425 | – |
| 2026 Apr 23 17:57 | 2026 Apr 19 07:41:43 | 98.7370 | 0.00680 | 8.8131 | 349.7225 | 55.5454 | 14.09425 | – |
| 2026 Apr 22 17:57 | 2026 Apr 19 07:41:43 | 98.7370 | 0.00680 | 8.8131 | 349.7225 | 55.5454 | 14.09425 | – |
| 2026 Apr 21 17:57 | 2026 Apr 19 07:41:43 | 98.7370 | 0.00680 | 8.8131 | 349.7225 | 55.5454 | 14.09425 | – |
| 2026 Apr 20 17:57 | 2026 Apr 19 07:41:43 | 98.7370 | 0.00680 | 8.8131 | 349.7225 | 55.5454 | 14.09425 | – |
| 2026 Apr 19 17:58 | 2026 Apr 19 07:41:43 | 98.7370 | 0.00680 | 8.8131 | 349.7225 | 55.5454 | 14.09425 | – |
| 2026 Apr 18 17:56 | 2026 Apr 12 12:07:56 | 98.7379 | 0.00684 | 8.3722 | 9.0410 | 55.5454 | 14.09425 | – |
| 2026 Apr 16 17:57 | 2026 Apr 12 12:07:56 | 98.7379 | 0.00684 | 8.3722 | 9.0410 | 55.5454 | 14.09425 | – |
| 2026 Apr 14 17:57 | 2026 Apr 12 12:07:56 | 98.7379 | 0.00684 | 8.3722 | 9.0410 | 55.5454 | 14.09425 | – |
| 2026 Apr 13 17:57 | 2026 Apr 12 12:07:56 | 98.7379 | 0.00684 | 8.3722 | 9.0410 | 55.5454 | 14.09425 | – |
| 2026 Apr 12 17:57 | 2026 Apr 08 12:43:13 | 98.7388 | 0.00687 | 8.1150 | 20.2749 | 55.5454 | 14.09425 | – |
| 2026 Apr 11 17:57 | 2026 Apr 08 12:43:13 | 98.7388 | 0.00687 | 8.1150 | 20.2749 | 55.5454 | 14.09425 | – |
| 2026 Apr 10 17:58 | 2026 Apr 08 12:43:13 | 98.7388 | 0.00687 | 8.1150 | 20.2749 | 55.5454 | 14.09425 | – |